CET,Max TemperatureF,Mean TemperatureF,Min TemperatureF,Max Dew PointF,MeanDew PointF,Min DewpointF,Max Humidity, Mean Humidity, Min Humidity, Max Sea Level PressureIn, Mean Sea Level PressureIn, Min Sea Level PressureIn, Max VisibilityMiles, Mean VisibilityMiles, Min VisibilityMiles, Max Wind SpeedMPH, Mean Wind SpeedMPH, Max Gust SpeedMPH,PrecipitationIn, CloudCover, Events, WindDirDegrees
2012-11-1,55,48,42,48,43,34,82,73,62,29.71,29.59,29.50,6,6,6,18,12,26,0.00,8,Rain,127
2012-11-2,66,57,48,54,50,46,94,82,56,29.86,29.75,29.68,6,6,5,12,8,,0.00,4,Rain,206
2012-11-3,59,50,42,54,50,43,100,92,82,30.04,30.02,30.01,6,3,0,13,9,,0.00,7,Fog,167
2012-11-4,64,53,42,54,49,43,100,80,64,29.98,29.93,29.86,,,,10,8,,0.00,,,170
2012-11-5,68,60,48,54,50,48,100,76,60,29.65,29.55,29.44,6,4,2,18,14,31,0.00,7,Rain,193
2012-11-6,55,48,41,43,40,39,100,76,54,30.04,29.95,29.86,6,6,6,13,8,,0.00,3,,258
2012-11-7,50,42,33,39,35,30,87,72,54,30.27,30.20,30.15,6,6,6,13,9,,0.00,6,,264
2012-11-8,53,46,39,45,41,37,93,82,71,30.33,30.27,30.21,6,6,6,10,7,,0.00,6,,207
2012-11-9,50,46,41,45,42,39,93,86,76,30.12,30.07,30.06,6,6,6,10,6,,0.00,6,Rain,262
2012-11-10,51,44,37,50,42,37,100,98,93,30.24,30.20,30.15,4,1,0,8,3,,0.00,7,Fog,138
2012-11-11,59,49,39,43,40,36,93,71,51,30.12,30.11,30.09,3,3,3,10,7,,0.00,6,,128
2012-11-12,60,50,39,46,42,36,93,75,55,30.24,30.21,30.18,,,,5,2,,0.00,,,171
2012-11-13,50,48,46,48,46,39,100,90,76,30.42,30.34,30.27,5,4,3,15,7,,0.00,7,Rain,13
2012-11-14,48,42,35,43,38,32,93,85,81,30.45,30.44,30.42,6,6,6,9,6,,0.00,6,,60
2012-11-15,50,46,39,43,42,39,100,88,76,30.42,30.36,30.30,6,4,2,5,2,,0.00,5,Fog,27
2012-11-16,48,39,30,43,37,30,100,93,76,30.30,30.28,30.27,5,1,0,7,2,,0.00,1,Fog,31
2012-11-17,51,42,32,43,38,32,100,86,67,30.21,30.18,30.12,4,2,1,4,2,,0.00,4,,98
2012-11-18,55,44,33,45,41,34,100,84,63,30.09,30.08,30.06,6,4,1,7,4,,0.00,1,Fog,158
2012-11-19,53,43,33,45,40,34,100,88,67,30.15,30.12,30.12,3,2,1,8,3,,0.00,5,Fog,57
2012-11-20,50,40,30,45,37,30,100,94,76,30.21,30.20,30.18,5,2,0,7,3,,0.00,6,Fog,37
2012-11-21,42,38,33,43,37,34,100,100,100,30.24,30.22,30.21,2,0,0,5,1,,0.00,4,Fog,358
2012-11-22,48,42,37,46,42,37,100,97,87,30.33,30.30,30.27,2,2,1,4,1,,0.00,7,,68
2012-11-23,48,44,39,45,42,39,100,92,82,30.27,30.26,30.24,6,3,2,4,0,,0.00,7,,128
2012-11-24,50,47,42,45,44,43,100,91,82,30.30,30.27,30.27,5,3,2,4,1,,0.00,6,,182
2012-11-25,51,46,39,45,42,39,100,89,71,30.24,30.20,30.18,6,3,1,7,4,,0.00,6,,145
2012-11-26,51,45,39,45,42,37,100,87,76,30.15,30.11,30.04,6,4,2,8,6,,0.00,6,,144
2012-11-27,53,50,46,45,42,41,87,79,72,29.98,29.94,29.89,4,4,4,10,9,,0.00,8,,170
2012-11-28,57,50,42,48,43,39,87,76,67,29.80,29.74,29.62,5,5,5,12,8,,0.00,6,,142
2012-11-29,59,55,50,50,49,46,94,82,72,29.47,29.41,29.36,6,6,5,15,10,,0.00,6,Rain,181
2012-11-30,42,40,37,39,38,36,100,89,87,29.74,29.60,29.50,6,6,6,6,4,,0.00,8,Rain,306